Parkersburg, WV

4:59 PM EDT on September 19, 2017 (GMT -0400)
Wood County Wilson

Weather History for KPKB - September, 2013

Change the Weather History Date:

Monday, September 16, 2013

  Actual Average Record
Temperature  
Mean Temperature 63 °F 66 °F  
Max Temperature 71 °F 77 °F 96 °F (1939)
Min Temperature 55 °F 55 °F 39 °F (2007)
Degree Days  
Heating Degree Days 2 2  
Month to date heating degree days 22 17  
Since 1 July heating degree days 27 22  
Cooling Degree Days 0 3  
Month to date cooling degree days 88 77  
Year to date cooling degree days 912 907  
Growing Degree Days 14 (Base 50)    
Moisture  
Dew Point 54 °F    
Average Humidity 71    
Maximum Humidity 93    
Minimum Humidity 49    
Precipitation  
Precipitation 0.18 in 0.10 in 1.80 in (1996)
Month to date precipitation 0.39 1.69  
Year to date precipitation 32.95 30.48  
Sea Level Pressure  
Sea Level Pressure 30.20 in    
Wind  
Wind Speed 4 mph (NNW)    
Max Wind Speed 14 mph    
Max Gust Speed 21 mph    
Visibility 7 miles    
Events Rain    
T = Trace of Precipitation, MM = Missing Value Source: NWS Daily Summary

Daily Weather History Graph

Daily Weather History Graph

Search for Another Location

Airport or City:

Trip Planner

Search our weather history database for the weather conditions in past years. The results will help you decide how hot, cold, wet, or windy it might be!

Date:

Astronomy

Sep. 16, 2013 Rise Set
Actual Time 7:08 AM EDT 7:32 PM EDT
Civil Twilight 6:41 AM EDT 7:59 PM EDT
Nautical Twilight 6:09 AM EDT 8:30 PM EDT
Astronomical Twilight 5:37 AM EDT 9:02 PM EDT
Moon 5:39 PM EDT (9/16) 3:53 AM EDT (9/16)
Length of Visible Light 13h 17m
Length of Day
12h 24m
Waxing Gibbous, 90% of the Moon is Illuminated
Sep 16
Waxing Gibbous
Sep 19
Full
Sep 26
Last Quarter
Oct 4
New
Oct 11
First Quarter

Hourly Weather History & Observations

Time (EDT) Temp. Dew Point Humidity Pressure Visibility Wind Dir Wind Speed Gust Speed Precip Events Conditions
12:53 AM 62.1 °F - N/A% 30.09 in 10.0 mi Calm Calm - N/A   Mostly Cloudy
1:53 AM 63.0 °F - N/A% 30.09 in 10.0 mi Calm Calm - N/A   Overcast
2:53 AM 63.0 °F - N/A% 30.12 in 10.0 mi NNW 6.9 mph - 0.00 in   Overcast
3:08 AM 62.6 °F - N/A% 30.13 in 10.0 mi NNW 6.9 mph - 0.00 in Rain Light Rain
3:20 AM 62.6 °F - N/A% 30.14 in 10.0 mi NNW 6.9 mph - 0.00 in Rain Light Rain
3:37 AM 60.8 °F - N/A% 30.14 in 6.0 mi NNW 6.9 mph - 0.02 in Rain Light Rain
3:53 AM 61.0 °F - N/A% 30.14 in 7.0 mi Variable 3.5 mph - 0.02 in Rain Light Rain
3:57 AM 60.8 °F - N/A% 30.15 in 4.0 mi NW 4.6 mph - 0.02 in Rain Rain
4:06 AM 60.8 °F - N/A% 30.15 in 2.5 mi NNW 6.9 mph - 0.05 in Rain Rain
4:09 AM 60.8 °F - N/A% 30.15 in 3.0 mi North 5.8 mph - 0.06 in Rain Rain
4:25 AM 60.8 °F - N/A% 30.16 in 7.0 mi NW 5.8 mph - 0.06 in Rain Light Rain
4:40 AM 59.0 °F - N/A% 30.17 in 7.0 mi NW 3.5 mph - 0.07 in Rain Light Rain
4:49 AM 59.0 °F - N/A% 30.17 in 6.0 mi NW 3.5 mph - 0.07 in Rain Light Rain
4:53 AM 59.0 °F - N/A% 30.15 in 5.0 mi North 4.6 mph - 0.07 in Rain Light Rain
5:53 AM 59.0 °F - N/A% 30.16 in 3.0 mi Calm Calm - 0.08 in Rain Light Rain
6:53 AM 59.0 °F - N/A% 30.17 in 6.0 mi Calm Calm - 0.01 in   Haze
7:15 AM 59.0 °F - N/A% 30.18 in 5.0 mi Calm Calm - N/A   Haze
7:24 AM 59.0 °F - N/A% 30.19 in 4.0 mi Calm Calm - N/A   Haze
7:31 AM 59.0 °F - N/A% 30.19 in 3.0 mi Calm Calm - N/A   Overcast
7:39 AM 59.0 °F - N/A% 30.19 in 2.5 mi Calm Calm - N/A   Overcast
7:41 AM 59.0 °F - N/A% 30.19 in 3.0 mi Calm Calm - N/A   Overcast
7:53 AM 59.0 °F - N/A% 30.18 in 3.0 mi Calm Calm - N/A   Overcast
8:07 AM 59.0 °F - N/A% 30.20 in 3.0 mi Calm Calm - N/A   Overcast
8:25 AM 59.0 °F - N/A% 30.20 in 5.0 mi Calm Calm - N/A   Haze
8:51 AM 60.8 °F - N/A% 30.21 in 5.0 mi Calm Calm - N/A   Haze
8:53 AM 60.1 °F - N/A% 30.20 in 5.0 mi Calm Calm - N/A   Haze
9:06 AM 60.8 °F - N/A% 30.21 in 5.0 mi NW 3.5 mph - N/A   Haze
9:53 AM 60.1 °F - N/A% 30.23 in 8.0 mi NW 3.5 mph - N/A   Overcast
10:13 AM 60.8 °F - N/A% 30.24 in 9.0 mi NW 3.5 mph - N/A   Overcast
10:45 AM 62.6 °F - N/A% 30.25 in 10.0 mi Calm Calm - N/A   Overcast
10:53 AM 62.1 °F - N/A% 30.24 in 10.0 mi North 4.6 mph - N/A   Overcast
11:53 AM 64.0 °F - N/A% 30.25 in 10.0 mi North 4.6 mph - N/A   Overcast
12:53 PM 66.0 °F 55.0 °F 68% 30.25 in 10.0 mi NNE 6.9 mph - N/A   Overcast
1:00 PM 66.2 °F 55.4 °F 68% 30.26 in 10.0 mi NNE 6.9 mph - N/A   Overcast
1:53 PM 68.0 °F 55.0 °F 63% 30.25 in 10.0 mi North 5.8 mph - N/A   Mostly Cloudy
2:53 PM 68.0 °F 53.1 °F 59% 30.24 in 10.0 mi North 8.1 mph - N/A   Mostly Cloudy
3:53 PM 70.0 °F 53.1 °F 55% 30.24 in 10.0 mi NNE 11.5 mph - N/A   Mostly Cloudy
4:53 PM 68.0 °F 52.0 °F 56% 30.23 in 10.0 mi NNW 5.8 mph - N/A   Scattered Clouds
5:53 PM 71.1 °F 52.0 °F 51% 30.24 in 10.0 mi NW 5.8 mph - N/A   Clear
6:53 PM 66.9 °F 53.1 °F 61% 30.24 in 10.0 mi NNW 3.5 mph - N/A   Clear
7:53 PM 60.1 °F 55.0 °F 83% 30.25 in 10.0 mi Calm Calm - N/A   Clear
8:53 PM 57.0 °F 55.0 °F 93% 30.27 in 7.0 mi Calm Calm - N/A   Clear
9:53 PM 57.9 °F 55.0 °F 90% 30.29 in 8.0 mi NNE 3.5 mph - N/A   Mostly Cloudy
10:53 PM 57.9 °F 52.0 °F 81% 30.31 in 10.0 mi NNE 4.6 mph - N/A   Clear
11:53 PM 57.0 °F 51.1 °F 81% 30.32 in 10.0 mi NE 6.9 mph - N/A   Clear